Weather History for Boston, MA

Change the Weather History Date:

Thursday, February 7, 2013

  Actual Average Record
Temperature  
Mean Temperature 24 °F 30 °F  
Max Temperature 30 °F 37 °F 56 °F (1925)
Min Temperature 18 °F 23 °F -5 °F (1875)
Degree Days  
Heating Degree Days 41 35  
Month to date heating degree days 267 245  
Since 1 July heating degree days 3127 3355  
Cooling Degree Days 0 0  
Month to date cooling degree days 0 0  
Year to date cooling degree days 0 0  
Moisture  
Dew Point 2 °F    
Average Humidity 43    
Maximum Humidity 58    
Minimum Humidity 27    
Precipitation  
Precipitation 0.00 in 0.11 in 1.93 in (1978)
Month to date precipitation 0.07 0.76  
Year to date precipitation 1.15 4.12  
Sea Level Pressure  
Sea Level Pressure 30.47 in    
Wind  
Wind Speed 9 mph (North)    
Max Wind Speed 18 mph    
Max Gust Speed 24 mph    
Visibility 10 miles    
Events      
T = Trace of Precipitation, MM = Missing Value Source: NWS Daily Summary

Daily Weather History Graph

Daily Weather History Graph

Search for Another Location

Airport:

Trip Planner

Search our weather history database for the weather conditions in past years. The results will help you decide how hot, cold, wet, or windy it might be!

Date:

Astronomy

Feb. 07, 2013 Rise Set
Actual Time 6:50 AM EST 5:06 PM EST
Civil Twilight 6:21 AM EST 5:35 PM EST
Nautical Twilight 5:48 AM EST 6:08 PM EST
Astronomical Twilight 5:15 AM EST 6:41 PM EST
Moon 4:29 AM EST (2/7) 2:25 PM EST (2/7)
Length of Visible Light 11h 14m
Length of Day
10h 15m
Waning Crescent, 9% of the Moon is Illuminated
Feb 7
Waning Crescent
Feb 10
New
Feb 17
First Quarter
Feb 25
Full
Mar 4
Last Quarter

Hourly Weather History & Observations

Time (EST) Temp. Windchill Dew Point Humidity Pressure Visibility Wind Dir Wind Speed Gust Speed Precip Events Conditions
12:54 AM 26.1 °F 15.6 °F 3.0 °F 37% 30.32 in 10.0 mi WNW 11.5 mph - N/A   Clear
1:54 AM 24.1 °F 15.2 °F 3.0 °F 40% 30.34 in 10.0 mi North 8.1 mph - N/A   Clear
2:54 AM 21.9 °F 11.0 °F 3.9 °F 46% 30.35 in 10.0 mi North 10.4 mph - N/A   Clear
3:54 AM 21.0 °F 13.4 °F -0.0 °F 40% 30.39 in 10.0 mi North 5.8 mph - N/A   Clear
4:54 AM 19.9 °F 12.1 °F -0.9 °F 40% 30.41 in 10.0 mi North 5.8 mph - N/A   Clear
5:54 AM 19.9 °F 11.1 °F -2.0 °F 38% 30.43 in 10.0 mi North 6.9 mph - N/A   Clear
6:54 AM 19.0 °F 11.1 °F -0.9 °F 42% 30.46 in 10.0 mi North 5.8 mph - N/A   Clear
7:54 AM 21.0 °F 8.6 °F -0.9 °F 38% 30.49 in 10.0 mi NW 12.7 mph - N/A   Scattered Clouds
8:54 AM 21.9 °F 9.2 °F -2.0 °F 35% 30.51 in 10.0 mi WNW 13.8 mph - N/A   Mostly Cloudy
9:54 AM 23.0 °F 10.1 °F -2.0 °F 34% 30.52 in 10.0 mi NW 15.0 mph 24.2 mph N/A   Mostly Cloudy
10:54 AM 25.0 °F 13.1 °F -2.0 °F 31% 30.53 in 10.0 mi NW 13.8 mph 24.2 mph N/A   Scattered Clouds
11:54 AM 27.0 °F 15.6 °F -2.0 °F 29% 30.52 in 10.0 mi NW 13.8 mph - N/A   Scattered Clouds
12:54 PM 28.0 °F 20.0 °F -0.9 °F 29% 30.50 in 10.0 mi NNW 8.1 mph - N/A   Scattered Clouds
1:54 PM 28.9 °F 20.4 °F -0.9 °F 28% 30.48 in 10.0 mi NNW 9.2 mph - N/A   Scattered Clouds
2:54 PM 28.9 °F 19.8 °F -2.0 °F 26% 30.48 in 10.0 mi NNE 10.4 mph - N/A   Scattered Clouds
3:54 PM 28.0 °F 20.8 °F -2.0 °F 27% 30.48 in 10.0 mi NNE 6.9 mph - N/A   Mostly Cloudy
4:54 PM 27.0 °F 19.5 °F -2.0 °F 29% 30.49 in 10.0 mi NNE 6.9 mph - N/A   Mostly Cloudy
5:54 PM 26.1 °F 20.5 °F -0.9 °F 31% 30.50 in 10.0 mi NE 4.6 mph - N/A   Partly Cloudy
6:54 PM 27.0 °F 19.5 °F 6.1 °F 41% 30.52 in 10.0 mi East 6.9 mph - N/A   Scattered Clouds
7:54 PM 25.0 °F 16.3 °F 6.1 °F 45% 30.52 in 10.0 mi ESE 8.1 mph - N/A   Clear
8:54 PM 27.0 °F 19.5 °F 7.0 °F 43% 30.52 in 10.0 mi East 6.9 mph - N/A   Overcast
9:54 PM 27.0 °F 17.3 °F 12.0 °F 53% 30.51 in 10.0 mi East 10.4 mph - N/A   Overcast
10:54 PM 28.0 °F 18.6 °F 15.1 °F 58% 30.50 in 10.0 mi ESE 10.4 mph - N/A   Overcast
11:54 PM 28.9 °F 20.4 °F 18.0 °F 64% 30.50 in 10.0 mi SE 9.2 mph - N/A   Overcast